Regional Weather Roundup
Issued by NWS

Home | Current Version | Previous Version | Text Only | Print | Product List | Glossary On
Versions: 1 2 3 4 5 6 7 8 9 10 11 12 13 14 15 16 17 18 19 20 21 22 23 24 25 26 27 28 29 30 31 32 33 34 35 36 37 38 39 40 41 42 43 44 45 46 47 48 49 50
000
ASUS44 KMEG 070210
RWRTN
TENNESSEE HOURLY STATE WEATHER ROUNDUP
NATIONAL WEATHER SERVICE MEMPHIS TN
900 PM CDT WED MAY 06 2015

TNZ002-004-019-021-049-052-054-088>092-070300-
WEST TENNESSEE

CITY           SKY/WX    TMP DP  RH WIND       PRES   REMARKS
MEMPHIS INTL   PTCLDY    76  51  41 SE6       30.04S
NWS MEMPHIS      N/A     69 N/A N/A MISG        N/A
JACKSON        CLEAR     67  53  61 S3        30.06S
DYERSBURG      CLEAR     73  45  35 SE5       30.06R
PARIS          CLEAR     66  54  63 S5        30.08S
LEXINGTON      CLEAR     64  54  68 CALM      30.08R
$$

TNZ008-025-027-028-033-062-065-066-070300-
NORTH MIDDLE TENNESSEE

CITY           SKY/WX    TMP DP  RH WIND       PRES   REMARKS
NASHVILLE      CLEAR     73  55  53 CALM      30.09R
CLARKSVILLE    CLEAR     70  57  63 CALM      30.08R
SMYRNA         PTCLDY    69  60  73 CALM      30.10R
COOKEVILLE     CLEAR     64  59  82 CALM      30.11R
CROSSVILLE     CLEAR     67  52  58 CALM      30.16R
$$

TNZ061-075-076-078-094-096-097-070300-
SOUTH MIDDLE TENNESSEE

CITY           SKY/WX    TMP DP  RH WIND       PRES   REMARKS
FAYETTEVILLE     N/A     68  50  52 CALM      30.12R
TULLAHOMA      CLEAR     63  52  67 CALM      30.14R
WINCHESTER     CLEAR     64  55  72 CALM      30.13R
MCMINNVILLE    CLEAR     66  59  77 CALM      30.13R
COLUMBIA       CLEAR     68  55  64 S5        30.09R
SHELBYVILLE    CLEAR     64  57  77 CALM      30.12R
$$

TNZ017-018-042-046-047-070300-
NORTHEAST TENNESSEE

CITY           SKY/WX    TMP DP  RH WIND       PRES   REMARKS
TRI CITIES     PTCLDY    63  60  90 CALM      30.16R
$$

TNZ012-013-036-069-073-074-070300-
CENTRAL EAST TENNESSEE

CITY           SKY/WX    TMP DP  RH WIND       PRES   REMARKS
KNOXVILLE      MOCLDY    74  53  48 S6        30.10R
OAK RIDGE      PTCLDY    73  58  59 CALM      30.12R
GATLINBURG     PTCLDY    66  63  88 W3        30.11R
MORRISTOWN       N/A     72  55  56 NE3       30.14R
$$

TNZ083-085-099-070300-
SOUTHEAST TENNESSEE

CITY           SKY/WX    TMP DP  RH WIND       PRES   REMARKS
CHATTANOOGA    PTCLDY    73  56  54 CALM      30.12R
$$

SKY/WX REPORTED AS FAIR MEANS FEW OR NO CLOUDS BELOW
12 THOUSAND FEET.




USA.gov is the U.S. government's official web portal to all federal, state and local government web resources and services.